Location: El Conde
(10.2895°N, 67.2409°W)
Time: 07:59:50
(UTC+00:00)

Resurs 1-3 - Pass Details

Date: 19 May 2024
Orbit: 622 x 623 km, 97.7° (Epoch: 22 June)

Event Time Altitude Azimuth Distance (km) Brightness Sun altitude
Exits shadow 23:40:41 20° 126° (SE) 1,424 4.8 -13.7°
Maximum altitude 23:42:53 33° 77° (ENE) 1,050 4.3 -14.2°
Drops below altitude 10° 23:46:46 10° 13° (NNE) 1,987 6.3 -15.0°
Sets 23:49:07 0° 4° (N) 2,892 7.3 -15.6°
